Time,TemperatureF,DewpointF,PressureIn,WindDirection,WindDirectionDegrees,WindSpeedMPH,WindSpeedGustMPH,Humidity,HourlyPrecipIn,Conditions,Clouds,dailyrainin,SolarRadiationWatts/m^2,SoftwareType,DateUTC
2013-02-18 00:01:00,27.0,21.0,-100.00,North,0,0.0,0.0,79,-99.99,,,0.00,0.000000,,2013-02-18 08:01:00,
2013-02-18 00:11:00,27.0,21.0,-100.00,North,0,0.0,0.0,79,-99.99,,,0.00,0.000000,,2013-02-18 08:11:00,
2013-02-18 00:42:00,26.0,21.0,-100.00,SW,234,0.0,1.0,81,-99.99,,,0.00,0.000000,,2013-02-18 08:42:00,
2013-02-18 00:52:00,26.0,21.0,-100.00,SW,234,0.0,1.0,81,-99.99,,,0.00,0.000000,,2013-02-18 08:52:00,
2013-02-18 01:02:00,26.0,21.0,-100.00,SW,234,0.0,1.0,81,-99.99,,,0.00,0.000000,,2013-02-18 09:02:00,
2013-02-18 01:11:00,26.0,21.0,-100.00,SW,234,0.0,1.0,81,-99.99,,,0.00,0.000000,,2013-02-18 09:11:00,
2013-02-18 01:41:00,25.0,21.0,-100.00,WNW,288,0.0,1.0,83,-99.99,,,0.00,0.000000,,2013-02-18 09:41:00,
2013-02-18 01:52:00,25.0,21.0,-100.00,WNW,288,0.0,1.0,83,-99.99,,,0.00,0.000000,,2013-02-18 09:52:00,
2013-02-18 02:01:00,25.0,21.0,-100.00,WNW,288,0.0,1.0,83,-99.99,,,0.00,0.000000,,2013-02-18 10:01:00,
2013-02-18 02:11:00,25.0,21.0,-100.00,WNW,288,0.0,1.0,83,-99.99,,,0.00,0.000000,,2013-02-18 10:11:00,
2013-02-18 02:42:00,26.0,21.0,-100.00,WNW,288,0.0,1.0,81,-99.99,,,0.00,0.000000,,2013-02-18 10:42:00,
2013-02-18 02:52:00,26.0,21.0,-100.00,WNW,288,0.0,1.0,81,-99.99,,,0.00,0.000000,,2013-02-18 10:52:00,
2013-02-18 03:01:00,26.0,21.0,-100.00,WNW,288,0.0,1.0,81,-99.99,,,0.00,0.000000,,2013-02-18 11:01:00,
2013-02-18 03:11:00,26.0,21.0,-100.00,WNW,288,0.0,1.0,81,-99.99,,,0.00,0.000000,,2013-02-18 11:11:00,
2013-02-18 03:42:00,25.0,20.0,-100.00,SSW,210,0.0,2.0,82,-99.99,,,0.00,0.000000,,2013-02-18 11:42:00,
2013-02-18 03:53:00,25.0,20.0,-100.00,SSW,210,0.0,2.0,82,-99.99,,,0.00,0.000000,,2013-02-18 11:53:00,
2013-02-18 04:02:00,25.0,20.0,-100.00,SSW,210,0.0,2.0,82,-99.99,,,0.00,0.000000,,2013-02-18 12:02:00,
2013-02-18 04:11:00,25.0,20.0,-100.00,SSW,210,0.0,2.0,82,-99.99,,,0.00,0.000000,,2013-02-18 12:11:00,
2013-02-18 04:42:00,25.0,20.0,-100.00,North,0,0.0,0.0,82,-99.99,,,0.00,0.000000,,2013-02-18 12:42:00,
2013-02-18 04:53:00,25.0,20.0,-100.00,North,0,0.0,0.0,82,-99.99,,,0.00,0.000000,,2013-02-18 12:53:00,
2013-02-18 05:02:00,25.0,20.0,-100.00,North,0,0.0,0.0,82,-99.99,,,0.00,0.000000,,2013-02-18 13:02:00,
2013-02-18 05:11:00,25.0,20.0,-100.00,North,0,0.0,0.0,82,-99.99,,,0.00,0.000000,,2013-02-18 13:11:00,
2013-02-18 05:42:00,25.0,20.0,-100.00,West,280,0.0,1.0,82,-99.99,,,0.00,0.000000,,2013-02-18 13:42:00,
2013-02-18 05:53:00,25.0,20.0,-100.00,West,280,0.0,1.0,82,-99.99,,,0.00,0.000000,,2013-02-18 13:53:00,
2013-02-18 06:02:00,25.0,20.0,-100.00,West,280,0.0,1.0,82,-99.99,,,0.00,0.000000,,2013-02-18 14:02:00,
2013-02-18 06:11:00,25.0,20.0,-100.00,West,280,0.0,1.0,82,-99.99,,,0.00,0.000000,,2013-02-18 14:11:00,
2013-02-18 06:41:00,29.0,20.0,-100.00,SSW,212,0.0,1.0,70,-99.99,,,0.00,0.000000,,2013-02-18 14:41:00,
2013-02-18 06:53:00,29.0,20.0,-100.00,SSW,212,0.0,1.0,70,-99.99,,,0.00,0.000000,,2013-02-18 14:53:00,
2013-02-18 07:01:00,29.0,20.0,-100.00,SSW,212,0.0,1.0,70,-99.99,,,0.00,0.000000,,2013-02-18 15:01:00,
2013-02-18 07:11:00,29.0,20.0,-100.00,SSW,212,0.0,1.0,70,-99.99,,,0.00,0.000000,,2013-02-18 15:11:00,
2013-02-18 07:42:00,30.0,20.0,-100.00,South,182,1.0,4.0,65,-99.99,,,0.00,9.180000,,2013-02-18 15:42:00,
2013-02-18 07:52:00,30.0,20.0,-100.00,South,182,1.0,4.0,65,-99.99,,,0.00,9.180000,,2013-02-18 15:52:00,
2013-02-18 08:02:00,30.0,20.0,-100.00,South,182,1.0,4.0,65,-99.99,,,0.00,9.180000,,2013-02-18 16:02:00,
2013-02-18 08:11:00,30.0,20.0,-100.00,South,182,1.0,4.0,65,-99.99,,,0.00,9.180000,,2013-02-18 16:11:00,
2013-02-18 08:42:00,32.0,19.0,-100.00,South,184,1.0,4.0,57,-99.99,,,0.00,58.459999,,2013-02-18 16:42:00,
2013-02-18 08:53:00,32.0,19.0,-100.00,South,184,1.0,4.0,57,-99.99,,,0.00,58.459999,,2013-02-18 16:53:00,
2013-02-18 09:03:00,32.0,19.0,-100.00,South,184,1.0,4.0,57,-99.99,,,0.00,58.459999,,2013-02-18 17:03:00,
2013-02-18 09:11:00,32.0,19.0,-100.00,South,184,1.0,4.0,57,-99.99,,,0.00,58.459999,,2013-02-18 17:11:00,
2013-02-18 09:42:00,34.0,21.0,-100.00,NW,319,1.0,2.0,57,-99.99,,,0.00,344.359985,,2013-02-18 17:42:00,
2013-02-18 09:53:00,34.0,21.0,-100.00,NW,319,1.0,2.0,57,-99.99,,,0.00,344.359985,,2013-02-18 17:53:00,
2013-02-18 10:02:00,34.0,21.0,-100.00,NW,319,1.0,2.0,57,-99.99,,,0.00,344.359985,,2013-02-18 18:02:00,
2013-02-18 10:11:00,34.0,21.0,-100.00,NW,319,1.0,2.0,57,-99.99,,,0.00,344.359985,,2013-02-18 18:11:00,
2013-02-18 10:42:00,40.0,17.0,-100.00,SSW,199,4.0,8.0,39,-99.99,,,0.00,365.399994,,2013-02-18 18:42:00,
2013-02-18 11:02:00,40.0,17.0,-100.00,SSW,199,4.0,8.0,39,-99.99,,,0.00,365.399994,,2013-02-18 19:02:00,
2013-02-18 11:11:00,40.0,17.0,-100.00,SSW,199,4.0,8.0,39,-99.99,,,0.00,365.399994,,2013-02-18 19:11:00,
2013-02-18 11:42:00,39.0,21.0,-100.00,North,7,3.0,9.0,47,-99.99,,,0.00,340.059998,,2013-02-18 19:42:00,
2013-02-18 11:53:00,39.0,21.0,-100.00,North,7,3.0,9.0,47,-99.99,,,0.00,340.059998,,2013-02-18 19:53:00,
2013-02-18 12:01:00,39.0,21.0,-100.00,North,7,3.0,9.0,47,-99.99,,,0.00,340.059998,,2013-02-18 20:01:00,
2013-02-18 12:11:00,39.0,21.0,-100.00,North,7,3.0,9.0,47,-99.99,,,0.00,340.059998,,2013-02-18 20:11:00,
2013-02-18 13:42:00,41.0,16.0,-100.00,SSW,209,3.0,8.0,35,-99.99,,,0.00,156.320007,,2013-02-18 21:42:00,
2013-02-18 13:53:00,41.0,16.0,-100.00,SSW,209,3.0,8.0,35,-99.99,,,0.00,156.320007,,2013-02-18 21:53:00,
2013-02-18 14:02:00,41.0,16.0,-100.00,SSW,209,3.0,8.0,35,-99.99,,,0.00,156.320007,,2013-02-18 22:02:00,
2013-02-18 14:11:00,41.0,16.0,-100.00,SSW,209,3.0,8.0,35,-99.99,,,0.00,156.320007,,2013-02-18 22:11:00,
2013-02-18 15:42:00,42.0,14.0,-100.00,West,275,3.0,9.0,31,-99.99,,,0.00,158.410004,,2013-02-18 23:42:00,
2013-02-18 15:53:00,42.0,14.0,-100.00,West,275,3.0,9.0,31,-99.99,,,0.00,158.410004,,2013-02-18 23:53:00,
2013-02-18 16:02:00,42.0,14.0,-100.00,West,275,3.0,9.0,31,-99.99,,,0.00,158.410004,,2013-02-19 00:02:00,
2013-02-18 16:11:00,42.0,14.0,-100.00,West,275,3.0,9.0,31,-99.99,,,0.00,158.410004,,2013-02-19 00:11:00,
2013-02-18 16:42:00,38.0,22.0,-100.00,NNW,345,4.0,8.0,51,-99.99,,,0.00,87.510002,,2013-02-19 00:42:00,
2013-02-18 16:54:00,38.0,22.0,-100.00,NNW,345,4.0,8.0,51,-99.99,,,0.00,87.510002,,2013-02-19 00:54:00,
2013-02-18 17:02:00,38.0,22.0,-100.00,NNW,345,4.0,8.0,51,-99.99,,,0.00,87.510002,,2013-02-19 01:02:00,
2013-02-18 17:12:00,38.0,22.0,-100.00,NNW,345,4.0,8.0,51,-99.99,,,0.00,87.510002,,2013-02-19 01:12:00,
2013-02-18 17:43:00,37.0,23.0,-100.00,NNE,12,2.0,5.0,55,-99.99,,,0.00,23.480000,,2013-02-19 01:43:00,
2013-02-18 17:55:00,37.0,23.0,-100.00,NNE,12,2.0,5.0,55,-99.99,,,0.00,23.480000,,2013-02-19 01:55:00,
2013-02-18 18:02:00,37.0,23.0,-100.00,NNE,12,2.0,5.0,55,-99.99,,,0.00,23.480000,,2013-02-19 02:02:00,
2013-02-18 18:42:00,35.0,23.0,-100.00,East,81,2.0,4.0,60,-99.99,,,0.00,0.000000,,2013-02-19 02:42:00,
2013-02-18 18:54:00,35.0,23.0,-100.00,East,81,2.0,4.0,60,-99.99,,,0.00,0.000000,,2013-02-19 02:54:00,
2013-02-18 19:04:00,35.0,23.0,-100.00,East,81,2.0,4.0,60,-99.99,,,0.00,0.000000,,2013-02-19 03:04:00,
2013-02-18 19:12:00,35.0,23.0,-100.00,East,81,2.0,4.0,60,-99.99,,,0.00,0.000000,,2013-02-19 03:12:00,
2013-02-18 19:43:00,34.0,23.0,-100.00,SE,140,0.0,2.0,62,-99.99,,,0.00,0.000000,,2013-02-19 03:43:00,
2013-02-18 19:54:00,34.0,23.0,-100.00,SE,140,0.0,2.0,62,-99.99,,,0.00,0.000000,,2013-02-19 03:54:00,
2013-02-18 20:02:00,34.0,23.0,-100.00,SE,140,0.0,2.0,62,-99.99,,,0.00,0.000000,,2013-02-19 04:02:00,
2013-02-18 20:12:00,34.0,23.0,-100.00,SE,140,0.0,2.0,62,-99.99,,,0.00,0.000000,,2013-02-19 04:12:00,
2013-02-18 20:43:00,33.0,22.0,-100.00,WSW,249,1.0,4.0,63,-99.99,,,0.00,0.000000,,2013-02-19 04:43:00,
2013-02-18 20:54:00,33.0,22.0,-100.00,WSW,249,1.0,4.0,63,-99.99,,,0.00,0.000000,,2013-02-19 04:54:00,
2013-02-18 21:01:00,33.0,22.0,-100.00,WSW,249,1.0,4.0,63,-99.99,,,0.00,0.000000,,2013-02-19 05:01:00,
2013-02-18 21:12:00,33.0,22.0,-100.00,WSW,249,1.0,4.0,63,-99.99,,,0.00,0.000000,,2013-02-19 05:12:00,
2013-02-18 21:43:00,32.0,19.0,-100.00,SSW,198,1.0,3.0,59,-99.99,,,0.00,0.000000,,2013-02-19 05:43:00,
2013-02-18 21:52:00,32.0,19.0,-100.00,SSW,198,1.0,3.0,59,-99.99,,,0.00,0.000000,,2013-02-19 05:52:00,
2013-02-18 22:02:00,32.0,19.0,-100.00,SSW,198,1.0,3.0,59,-99.99,,,0.00,0.000000,,2013-02-19 06:02:00,
2013-02-18 22:11:00,32.0,19.0,-100.00,SSW,198,1.0,3.0,59,-99.99,,,0.00,0.000000,,2013-02-19 06:11:00,
2013-02-18 22:42:00,30.0,19.0,-100.00,SSW,194,1.0,4.0,63,-99.99,,,0.00,0.000000,,2013-02-19 06:42:00,
2013-02-18 22:52:00,30.0,19.0,-100.00,SSW,194,1.0,4.0,63,-99.99,,,0.00,0.000000,,2013-02-19 06:52:00,
2013-02-18 23:01:00,30.0,19.0,-100.00,SSW,194,1.0,4.0,63,-99.99,,,0.00,0.000000,,2013-02-19 07:01:00,
2013-02-18 23:11:00,30.0,19.0,-100.00,SSW,194,1.0,4.0,63,-99.99,,,0.00,0.000000,,2013-02-19 07:11:00,
2013-02-18 23:42:00,26.0,20.0,-100.00,SSW,194,1.0,4.0,74,-99.99,,,0.00,0.000000,,2013-02-19 07:42:00,
2013-02-18 23:52:00,26.0,20.0,-100.00,SSW,194,1.0,4.0,74,-99.99,,,0.00,0.000000,,2013-02-19 07:52:00,